Weather History for Fort Knox, KY

Change the Weather History Date:

Monday, March 12, 2012

  Actual Average Record
Temperature  
Mean Temperature 60 °F -  
Max Temperature 64 °F 50 °F 71 °F (2007)
Min Temperature 56 °F 32 °F 8 °F (1998)
Degree Days  
Heating Degree Days 5    
Growing Degree Days 10 (Base 50)    
Moisture  
Dew Point 57 °F    
Average Humidity 90    
Maximum Humidity 100    
Minimum Humidity 59    
Precipitation  
Precipitation 0.20 in - - ()
Sea Level Pressure  
Sea Level Pressure 30.09 in    
Wind  
Wind Speed 13 mph (South)    
Max Wind Speed 23 mph    
Max Gust Speed 29 mph    
Visibility 8 miles    
Events Rain    
Averages and records for this station are not official NWS values.
T = Trace of Precipitation, MM = Missing Value Source: NWS Daily Summary

Daily Weather History Graph

Daily Weather History Graph

Search for Another Location

Airport:

Trip Planner

Search our weather history database for the weather conditions in past years. The results will help you decide how hot, cold, wet, or windy it might be!

Date:

Astronomy

Mar. 12, 2012 Rise Set
Actual Time 7:58 AM EDT 7:48 PM EDT
Civil Twilight 7:32 AM EDT 8:14 PM EDT
Nautical Twilight 7:02 AM EDT 8:45 PM EDT
Astronomical Twilight 6:31 AM EDT 9:16 PM EDT
Moon 12:05 AM EDT (3/12) 10:25 AM EDT (3/12)
Length of Visible Light 12h 42m
Length of Day
11h 49m
Waning Gibbous, 76% of the Moon is Illuminated
Mar 12
Waning Gibbous
Mar 14
Last Quarter
Mar 22
New
Mar 30
First Quarter
Apr 6
Full

Hourly Weather History & Observations

Time (EDT) Temp. Dew Point Humidity Pressure Visibility Wind Dir Wind Speed Gust Speed Precip Events Conditions
12:55 AM 61.2 °F 48.9 °F 64% 30.18 in 7.0 mi SSE 11.5 mph - 0.00 in Rain Light Rain Showers
1:11 AM 60.8 °F 48.2 °F 63% 30.17 in 10.0 mi SSE 12.7 mph - N/A   Overcast
1:23 AM 62.6 °F 48.2 °F 59% 30.17 in 7.0 mi SSE 12.7 mph - N/A Rain Light Rain Showers
1:55 AM 60.1 °F 50.9 °F 72% 30.17 in 7.0 mi South 15.0 mph - 0.00 in Rain Light Rain
2:55 AM 57.2 °F 53.2 °F 87% 30.15 in 7.0 mi SSE 12.7 mph - 0.02 in Rain Light Rain
3:55 AM 57.7 °F 54.0 °F 87% 30.13 in 7.0 mi South 16.1 mph 24.2 mph 0.00 in Rain Light Rain
4:55 AM 57.0 °F 54.5 °F 91% 30.11 in 7.0 mi SSE 11.5 mph - 0.01 in Rain Light Rain
5:55 AM 57.0 °F 54.1 °F 90% 30.10 in 7.0 mi SSE 10.4 mph - 0.00 in Rain Light Rain
6:42 AM 57.2 °F 53.6 °F 88% 30.09 in 10.0 mi SSE 10.4 mph - N/A   Overcast
6:55 AM 57.6 °F 53.8 °F 87% 30.09 in 7.0 mi SSE 13.8 mph - 0.00 in   Light Drizzle
7:55 AM 56.7 °F 54.9 °F 94% 30.11 in 7.0 mi South 10.4 mph - 0.02 in Rain Light Rain
8:10 AM 57.2 °F 55.4 °F 94% 30.11 in 9.0 mi WSW 6.9 mph - N/A Rain Light Rain
8:55 AM 56.7 °F 55.6 °F 96% 30.12 in 10.0 mi South 8.1 mph - 0.00 in   Overcast
9:28 AM 59.0 °F 55.4 °F 88% 30.11 in 10.0 mi South 10.4 mph - N/A   Overcast
9:55 AM 59.5 °F 56.3 °F 89% 30.12 in 10.0 mi SSE 10.4 mph - 0.01 in   Overcast
10:47 AM 60.8 °F 57.2 °F 88% 30.10 in 5.0 mi South 15.0 mph 23.0 mph N/A Rain Light Rain
10:55 AM 61.0 °F 57.7 °F 89% 30.11 in 10.0 mi South 18.4 mph 25.3 mph 0.00 in Rain Light Rain
11:42 AM 62.6 °F 59.0 °F 88% 30.10 in 10.0 mi South 21.9 mph 28.8 mph N/A   Overcast
11:46 AM 62.6 °F 59.0 °F 88% 30.10 in 1.5 mi South 23.0 mph 28.8 mph N/A Rain Light Rain
11:55 AM 61.3 °F 59.0 °F 92% 30.11 in 1.5 mi South 16.1 mph 25.3 mph 0.04 in Rain Rain
12:12 PM 60.8 °F 60.8 °F 100% 30.10 in 3.0 mi South 13.8 mph - N/A Rain Light Rain
12:23 PM 60.8 °F 60.8 °F 100% 30.10 in 1.5 mi South 13.8 mph - N/A Rain Light Rain
12:52 PM 60.8 °F 60.8 °F 100% 30.10 in 3.0 mi South 12.7 mph - N/A Rain Light Rain
12:55 PM 60.3 °F 59.9 °F 99% 30.11 in 3.0 mi South 9.2 mph 19.6 mph 0.07 in Rain Light Rain
12:57 PM 60.3 °F 59.9 °F 99% 30.11 in 3.0 mi South 9.2 mph 19.6 mph 0.07 in Rain Light Rain
1:55 PM 60.8 °F 60.4 °F 99% 30.09 in 7.0 mi South 15.0 mph - 0.02 in   Overcast
2:55 PM 62.8 °F 62.6 °F 99% 30.06 in 10.0 mi South 11.5 mph 19.6 mph N/A   Overcast
3:55 PM 63.7 °F 62.8 °F 97% 30.04 in 10.0 mi South 12.7 mph - 0.01 in   Overcast
4:55 PM 63.9 °F 62.1 °F 94% 30.03 in 10.0 mi South 13.8 mph 23.0 mph N/A   Overcast
5:55 PM 64.2 °F 63.0 °F 96% 30.01 in 10.0 mi South 19.6 mph 24.2 mph N/A   Overcast
6:55 PM 64.2 °F 62.2 °F 93% 30.01 in 10.0 mi South 15.0 mph - N/A   Overcast
7:55 PM 64.0 °F 61.9 °F 93% 30.02 in 10.0 mi South 10.4 mph - N/A   Overcast
8:55 PM 63.0 °F 61.5 °F 95% 30.02 in 10.0 mi South 15.0 mph - N/A   Overcast
9:55 PM 62.1 °F 60.4 °F 94% 30.03 in 10.0 mi South 12.7 mph - N/A   Partly Cloudy
10:55 PM 61.2 °F 59.9 °F 96% 30.04 in 10.0 mi South 13.8 mph - N/A   Clear
11:55 PM 61.0 °F 59.5 °F 95% 30.04 in 10.0 mi South 12.7 mph - N/A   Clear